Demopolis Lake Weather Center

Moon Phase Calendar



Demopolis Lake Water Level
Online Cameras

 


      

Current Conditions in Demopolis
2/28/2024 10:45:39 AM

75°F
Feels Like 75
Clouds
Humidity
64%
Pressure
29.97"
Wind
9.2 mph (SW)
Dew Point
62°F
UV Index
1/10 (Low)
Visibility
6 mi

Hourly Forecast

Date & Time Wed, Feb 28
10:00 AM
Wed, Feb 28
11:00 AM
Wed, Feb 28
12:00 PM
Wed, Feb 28
1:00 PM
Wed, Feb 28
2:00 PM
Wed, Feb 28
3:00 PM
Wed, Feb 28
4:00 PM
Wed, Feb 28
5:00 PM
Wed, Feb 28
6:00 PM
Wed, Feb 28
7:00 PM
Wed, Feb 28
8:00 PM
Wed, Feb 28
9:00 PM
Wed, Feb 28
10:00 PM
Wed, Feb 28
11:00 PM
Thu, Feb 29
12:00 AM
Thu, Feb 29
1:00 AM
Thu, Feb 29
2:00 AM
Thu, Feb 29
3:00 AM
Thu, Feb 29
4:00 AM
Thu, Feb 29
5:00 AM
Thu, Feb 29
6:00 AM
Thu, Feb 29
7:00 AM
Thu, Feb 29
8:00 AM
Thu, Feb 29
9:00 AM
Thu, Feb 29
10:00 AM
Thu, Feb 29
11:00 AM
Thu, Feb 29
12:00 PM
Thu, Feb 29
1:00 PM
Thu, Feb 29
2:00 PM
Thu, Feb 29
3:00 PM
Thu, Feb 29
4:00 PM
Thu, Feb 29
5:00 PM
Thu, Feb 29
6:00 PM
Thu, Feb 29
7:00 PM
Thu, Feb 29
8:00 PM
Thu, Feb 29
9:00 PM
Thu, Feb 29
10:00 PM
Thu, Feb 29
11:00 PM
Fri, Mar 1
12:00 AM
Fri, Mar 1
1:00 AM
Fri, Mar 1
2:00 AM
Fri, Mar 1
3:00 AM
Fri, Mar 1
4:00 AM
Fri, Mar 1
5:00 AM
Fri, Mar 1
6:00 AM
Fri, Mar 1
7:00 AM
Fri, Mar 1
8:00 AM
Fri, Mar 1
9:00 AM
Condition
Clouds

Clouds

Clouds

Clouds

Rain

Rain

Clouds

Clouds

Clouds

Clouds

Clouds

Clouds

Clouds

Clouds

Clouds

Clouds

Clouds

Clouds

Clouds

Clouds

Clouds

Clouds

Clouds

Clouds

Clouds

Clouds

Clouds

Clouds

Clouds

Clouds

Clouds

Clouds

Clouds

Clouds

Clouds

Clouds

Clouds

Clouds

Clouds

Clouds

Clouds

Clouds

Rain

Rain

Rain

Rain

Rain

Rain
Temperature 75°F75°F75°F67°F62°F55°F50°F49°F49°F49°F47°F47°F46°F45°F44°F44°F43°F41°F41°F40°F40°F41°F43°F46°F48°F51°F52°F53°F54°F53°F53°F51°F49°F49°F50°F50°F48°F48°F48°F49°F51°F51°F50°F49°F49°F49°F49°F50°F
Feels Like 75°F75°F75°F67°F61°F54°F48°F44°F44°F44°F43°F42°F42°F41°F39°F39°F37°F36°F36°F35°F35°F36°F37°F41°F44°F47°F49°F49°F51°F50°F50°F48°F49°F48°F49°F48°F48°F48°F46°F48°F49°F49°F49°F48°F48°F48°F46°F49°F
Cloudiness 100%100%100%100%100%100%100%100%100%100%100%100%100%100%100%100%100%100%100%100%100%100%100%100%100%100%100%100%100%100%100%100%100%100%100%100%100%100%100%100%100%100%100%100%100%100%100%100%
Visibility 6 mi6 mi6 mi6 mi6 mi6 mi6 mi6 mi6 mi6 mi6 mi6 mi6 mi6 mi6 mi6 mi6 mi6 mi6 mi6 mi6 mi6 mi6 mi6 mi6 mi6 mi6 mi6 mi6 mi6 mi6 mi6 mi6 mi6 mi6 mi6 mi6 mi6 mi6 mi6 mi6 mi6 mi6 mi6 mi4 mi6 mi3 mi3 mi
Precipitation 0%11%34%81%87%86%79%79%78%0%0%0%0%0%0%0%0%0%0%0%0%0%0%0%0%0%0%0%0%0%0%0%0%0%0%0%0%0%0%0%0%1%34%96%100%100%100%100%
Humidity 65%64%66%74%76%78%76%73%69%63%57%54%53%53%52%51%50%51%51%52%53%53%47%39%36%33%32%32%32%38%42%47%50%52%52%53%57%59%63%63%64%68%77%90%94%96%98%97%
Dew Point 62°F62°F63°F59°F54°F48°F43°F40°F39°F36°F33°F31°F30°F29°F28°F27°F25°F24°F24°F24°F24°F25°F23°F22°F22°F22°F23°F24°F25°F28°F30°F31°F31°F32°F33°F34°F34°F35°F35°F37°F39°F40°F43°F46°F47°F48°F48°F49°F
Pressure 29.97"29.97"29.97"30"30.06"30.12"30.18"30.24"30.27"30.27"30.3"30.33"30.36"30.33"30.39"30.39"30.36"30.36"30.39"30.39"30.39"30.42"30.45"30.45"30.42"30.39"30.33"30.33"30.33"30.33"30.3"30.27"30.3"30.3"30.3"30.3"30.27"30.27"30.24"30.21"30.21"30.18"30.18"30.18"30.21"30.21"30.21"30.18"
Wind Speed 13.7 mph13.1 mph11.1 mph16.5 mph16.6 mph13.8 mph14.4 mph12.3 mph10.5 mph10.8 mph10.2 mph9.8 mph9 mph8.9 mph9.4 mph7.8 mph9.8 mph7.5 mph7 mph7.5 mph7.4 mph6.4 mph8.8 mph9.3 mph8.7 mph9.3 mph11.2 mph6.6 mph6.5 mph6.6 mph5.8 mph7.2 mph3.1 mph3.3 mph3.2 mph2.9 mph3.2 mph3.2 mph4.4 mph4.7 mph3.7 mph5.2 mph3.8 mph3.1 mph3.4 mph3.5 mph6.4 mph7.7 mph
Wind
Direction
227°
SW
236°
SW
267°
W
332°
NNW
328°
NNW
344°
NNW
349°
N
357°
N

N
10°
N
14°
NNE
13°
NNE
20°
NNE
23°
NNE
13°
NNE
18°
NNE
22°
NNE
32°
NNE
22°
NNE
37°
NE
30°
NNE
28°
NNE
32°
NNE
41°
NE
51°
NE
57°
ENE
64°
ENE
42°
NE
57°
ENE
55°
NE
75°
ENE
61°
ENE
44°
NE
74°
ENE
107°
ESE
105°
ESE
80°
E
80°
E
75°
ENE
87°
E
94°
E
97°
E
78°
ENE
46°
NE
129°
SE

N
51°
NE
59°
ENE

Daily Forecast

Date High Low Precip. Humidity
Today
Feb 28

Rain
75 °F
45 °F
87%
66%
Thursday
Feb 29

Clouds
54 °F
40 °F
0%
32%
Friday
Mar 1

Rain
56 °F
48 °F
100%
99%
Saturday
Mar 2

Clouds
66 °F
56 °F
1%
76%
Sunday
Mar 3

Rain
70 °F
60 °F
85%
75%
Monday
Mar 4

Rain
65 °F
61 °F
98%
95%
Tuesday
Mar 5

Rain
72 °F
62 °F
100%
71%
Wednesday
Mar 6

Rain
72 °F
60 °F
92%
74%
Thursday
Mar 7

Rain
68 °F
65 °F
100%
93%
Friday
Mar 8

Rain
73 °F
64 °F
100%
95%
Saturday
Mar 9

Clouds
66 °F
50 °F
53%
57%
Sunday
Mar 10

Clouds
72 °F
51 °F
0%
48%
Monday
Mar 11

Clouds
74 °F
52 °F
0%
45%
Tuesday
Mar 12

Rain
67 °F
58 °F
37%
66%
Wednesday
Mar 13

Rain
70 °F
58 °F
74%
84%
Thursday
Mar 14

Clouds
80 °F
61 °F
12%
62%

Temperature 8-14 Day Outlook



Precipitation 8-14 Day Outlook




Quick Links
Demopolis Lake News
Demopolis Lake Photos
Demopolis Lake Videos




About Us
Contact Us
Site Map
Search Site
Advertise With Us
   
www.DemopolisLake.com
THE DEMOPOLIS LAKE WEBSITE

Copyright 2024, Lakes Online
Privacy    |    Legal